Skip Page Navigation
NASA JPL Caltech
NASA Logo - Jet Propulsion Laboratory + View the NASA Portal
+ Near-Earth Object (NEO) Program
Search JPL
JPL Home Earth Solar System Stars & Galaxies Technology
JPL Solar System Dynamics
BODIES ORBITS EPHEMERIDES TOOLS PHYSICAL DATA DISCOVERY FAQ SITE MAP
JPL Small-Body Database Browser
Search: [ help ]  
35243 (1995 TZ1)
Classification: Main-belt Asteroid          SPK-ID: 2035243
Ephemeris | Orbit Diagram | Orbital Elements | Physical Parameters | Discovery Circumstances | Close-Approach Data ]

[ show orbit diagram ]
Orbital Elements at Epoch 2457400.5 (2016-Jan-13.0) TDB
Reference: JPL 14 (heliocentric ecliptic J2000)
 Element Value Uncertainty (1-sigma)   Units 
e .2386471672764954 7.39e-08  
a 2.630470917976234 1.507e-08 au
q 2.002716484798003 1.9266e-07 au
i 7.632032128893508 8.5976e-06 deg
node 42.65787239451252 3.7881e-05 deg
peri 201.3527989901541 4.0327e-05 deg
M 44.45638502333759 1.2156e-05 deg
tp 2457208.066655400904
(2015-Jul-04.56665540)
5.28e-05 JED
period 1558.291435961511
4.27
1.3391e-05
3.666e-08
d
yr
n .2310222540483062 1.9853e-09 deg/d
Q 3.258225351154464 1.8667e-08 au
  Orbit Determination Parameters
   # obs. used (total)      814  
   data-arc span      7244 days (19.83 yr)  
   first obs. used      1995-10-14  
   last obs. used      2015-08-14  
   planetary ephem.      DE431  
   SB-pert. ephem.      SB431-BIG16  
   condition code      0  
   fit RMS      .56604  
   data source      ORB  
   producer      Otto Matic  
   solution date      2015-Sep-02 15:27:16  

Additional Information
 Earth MOID = .991229 au 
 Jupiter MOID = 1.77204 au 
 T_jup = 3.347 
[ show covariance matrix ]

Ephemeris | Orbit Diagram | Orbital Elements | Physical Parameters | Discovery Circumstances | Close-Approach Data ]

Physical Parameter Table
Parameter Symbol Value Units Sigma Reference Notes
absolute magnitude H 14.4 mag n/a MPO344573  

35243 (1995 TZ1)          Discovered 1995-Oct-14 by BAO Schmidt CCD Asteroid Program at Xinglong
Reference: 20020227/Numbers.arcLast Updated: 2004-04-19

[ show close-approach data ]
Alternate Designations
 1995 TZ1 = 1998 KR62 
Ephemeris | Orbit Diagram | Orbital Elements | Physical Parameters | Discovery Circumstances | Close-Approach Data ]
ABOUT SSD CREDITS/AWARDS PRIVACY/COPYRIGHT GLOSSARY LINKS
FirstGov 2016-Feb-08 04:05 UT
(server date/time)  
NASA Home Page
Site Manager:   Ryan S. Park
Webmaster  Alan B. Chamberlin